Back to catalog

STARLINK-2628

AliveCommunicationsVLEO
NORAD 48359·PAYLOAD·🇺🇸 United States

Launched May 4, 2021 from Cape Canaveral Space Force Station

Loading…

Next Passes (next 24 hours)

TLE

FreshSource: CelesTrak SupGP

Epoch: Sep 14, 2026, 13:39 UTC

1 48359C 21038G   26257.56923611  .00015240  00000+0  47214-3 0  2577
2 48359  53.1577 199.3895 0001886 109.5098 184.8622 15.32882420    15

Track STARLINK-2628 in real time with AllMySat

Download on the App Store